Starlink 3301

operational
NORAD ID: 50169 Int'l Des: 2021-125 Owner: SPXS Country: US Constellation: starlink
LEOCIRCULAR

About Starlink 3301

Description loading...

Live Position

Loading 3D Globe...

Upcoming Passes

Altitude History

Altitude vs Time

uPlot chart will show altitude changes over time

Two-Line Element Set

1 50169U 21125P 25339.15606711 .00000635 00000-0 58003-4 0 9995
2 50169 53.2175 313.4983 0001395 91.0436 269.0716 15.08837048222335
Epoch: Dec 5, 2025 • Age: 20 hours

Current Status

Altitude 558.9 km
Velocity 7.58 km/s
Sub-Earth Point -52.42°S, 130.09°E
Launch Date Dec 18, 2021
Age 3.9 years
Type internet

Technical Details

Classification Payload
Mass 290.00 kg
Dry Mass 270.00 kg
Total Mass 290.00 kg
Length 0.20 m
Diameter 2.80 m
Span 9.00 m
Shape Box + pan
Manufacturer SPXS
Bus Type Starlink
Phase Status In Orbit
Owner/State SPXS/US

Large Constellations

Loading constellations...